When you browse on this site, cookies collect data to enhance your experience and personalize the content and advertising you see.
Visit our Privacy Policy to learn more. By continuing to use the site, you agree to this use of cookies and data.
  • In Spain
  • List of Countries
  • For 7 days
  • Water Temperature
  • Satellite Maps
  • Weather Map
  • Weather Widgets
  • user-avatar
    Login

    Hourly Weather Verbovka

    Today, 20 May, Monday

    Time Temperature Precipitation Wind Pressure Humidity
    00:00 +14°C° 0 mm 2 mps 745 mmHg 80%
    01:00 +14°C° 0 mm 2 mps 745 mmHg 81%
    02:00 +13°C° 0 mm 2 mps 745 mmHg 80%
    03:00 +13°C° 0 mm 2 mps 745 mmHg 80%
    04:00 +13°C° 0 mm 2 mps 745 mmHg 80%
    05:00 +13°C° 0 mm 2 mps 745 mmHg 80%
    06:00 +16°C° 0 mm 2 mps 745 mmHg 75%
    07:00 +18°C° 0 mm 2 mps 746 mmHg 71%
    08:00 +20°C° 0 mm 3 mps 746 mmHg 66%
    09:00 +21°C° 0 mm 3 mps 746 mmHg 60%
    10:00 +22°C° 0 mm 4 mps 746 mmHg 55%
    11:00 +23°C° 0 mm 4 mps 746 mmHg 49%
    12:00 +23°C° 0 mm 4 mps 746 mmHg 48%
    13:00 +25°C° 0 mm 4 mps 746 mmHg 47%
    14:00 +25°C° 0 mm 4 mps 745 mmHg 47%
    15:00 +25°C° 0 mm 3 mps 745 mmHg 51%
    16:00 +25°C° 0 mm 3 mps 745 mmHg 55%
    17:00 +24°C° 0 mm 2 mps 745 mmHg 59%
    18:00 +21°C° 0 mm 2 mps 745 mmHg 63%
    19:00 +19°C° 0 mm 2 mps 745 mmHg 68%
    20:00 +17°C° 0 mm 2 mps 745 mmHg 73%
    21:00 +17°C° 0 mm 2 mps 745 mmHg 75%
    22:00 +16°C° 0 mm 2 mps 745 mmHg 77%
    23:00 +15°C° 0 mm 2 mps 745 mmHg 79%

    Tomorrow, 21 May, Tuesday

    Time Temperature Precipitation Wind Pressure Humidity
    00:00 +14°C° 0 mm 2 mps 745 mmHg 81%
    01:00 +14°C° 0 mm 2 mps 745 mmHg 83%
    02:00 +13°C° 0 mm 2 mps 745 mmHg 85%
    03:00 +12°C° 0 mm 3 mps 745 mmHg 85%
    04:00 +12°C° 0 mm 3 mps 745 mmHg 85%
    05:00 +12°C° 0 mm 3 mps 745 mmHg 85%
    06:00 +14°C° 0 mm 4 mps 745 mmHg 78%
    07:00 +17°C° 0 mm 4 mps 745 mmHg 71%
    08:00 +19°C° 0 mm 5 mps 745 mmHg 64%
    09:00 +20°C° 0 mm 5 mps 744 mmHg 60%
    10:00 +21°C° 0 mm 6 mps 744 mmHg 56%
    11:00 +22°C° 0 mm 6 mps 744 mmHg 52%
    12:00 +22°C° 0 mm 6 mps 744 mmHg 52%
    13:00 +23°C° 0 mm 5 mps 744 mmHg 53%
    14:00 +23°C° 0 mm 5 mps 743 mmHg 53%
    15:00 +23°C° 0 mm 5 mps 743 mmHg 56%
    16:00 +23°C° 0 mm 4 mps 742 mmHg 60%
    17:00 +23°C° 0 mm 4 mps 742 mmHg 63%
    18:00 +21°C° 0 mm 3 mps 742 mmHg 68%
    19:00 +19°C° 0 mm 3 mps 742 mmHg 73%
    20:00 +17°C° 0 mm 3 mps 742 mmHg 78%
    21:00 +16°C° 0 mm 3 mps 742 mmHg 78%
    22:00 +14°C° 0 mm 3 mps 742 mmHg 78%
    23:00 +14°C° 0 mm 3 mps 742 mmHg 79%

    Day after tomorrow, 22 May, Wednesday

    Time Temperature Precipitation Wind Pressure Humidity
    00:00 +13°C° 0 mm 3 mps 741 mmHg 82%
    01:00 +13°C° 0 mm 3 mps 741 mmHg 85%
    02:00 +12°C° 0 mm 3 mps 741 mmHg 88%
    03:00 +12°C° 0 mm 3 mps 741 mmHg 89%
    04:00 +13°C° 0 mm 2 mps 740 mmHg 90%
    05:00 +13°C° 0 mm 2 mps 740 mmHg 91%
    06:00 +15°C° 0 mm 2 mps 740 mmHg 87%
    07:00 +17°C° 0 mm 2 mps 740 mmHg 84%
    08:00 +18°C° 0 mm 2 mps 740 mmHg 80%
    09:00 +20°C° 0 mm 2 mps 740 mmHg 77%
    10:00 +21°C° 0 mm 3 mps 739 mmHg 75%
    11:00 +22°C° 0 mm 3 mps 739 mmHg 73%
    12:00 +22°C° 0.1 mm 3 mps 739 mmHg 70%
    13:00 +24°C° 0.1 mm 3 mps 739 mmHg 67%
    14:00 +25°C° 0.1 mm 3 mps 738 mmHg 64%
    15:00 +25°C° 0 mm 3 mps 738 mmHg 64%
    16:00 +24°C° 0 mm 3 mps 738 mmHg 64%
    17:00 +24°C° 0 mm 3 mps 738 mmHg 65%
    18:00 +23°C° 0.1 mm 2 mps 738 mmHg 72%
    19:00 +20°C° 0.1 mm 2 mps 738 mmHg 78%
    20:00 +18°C° 0.1 mm 2 mps 738 mmHg 85%
    21:00 +17°C° 0 mm 2 mps 738 mmHg 87%
    22:00 +17°C° 0 mm 2 mps 738 mmHg 89%
    23:00 +16°C° 0 mm 2 mps 738 mmHg 91%

    23 May, Thursday

    Time Temperature Precipitation Wind Pressure Humidity
    00:00 +16°C° 0 mm 2 mps 738 mmHg 91%
    01:00 +15°C° 0 mm 2 mps 738 mmHg 92%
    02:00 +15°C° 0 mm 2 mps 737 mmHg 92%
    03:00 +15°C° 0 mm 2 mps 737 mmHg 92%
    04:00 +15°C° 0 mm 2 mps 737 mmHg 91%
    05:00 +15°C° 0 mm 2 mps 737 mmHg 91%
    06:00 +17°C° 0 mm 2 mps 738 mmHg 84%
    07:00 +19°C° 0 mm 2 mps 738 mmHg 78%
    08:00 +21°C° 0 mm 2 mps 738 mmHg 72%
    09:00 +23°C° 0 mm 2 mps 737 mmHg 67%
    10:00 +24°C° 0 mm 3 mps 737 mmHg 62%
    11:00 +25°C° 0 mm 3 mps 737 mmHg 57%
    12:00 +25°C° 0 mm 3 mps 737 mmHg 56%
    13:00 +25°C° 0 mm 4 mps 737 mmHg 54%
    14:00 +26°C° 0 mm 4 mps 737 mmHg 53%
    15:00 +25°C° 0 mm 3 mps 737 mmHg 56%
    16:00 +25°C° 0 mm 3 mps 737 mmHg 59%
    17:00 +25°C° 0 mm 3 mps 736 mmHg 61%
    18:00 +23°C° 0 mm 2 mps 736 mmHg 67%
    19:00 +20°C° 0 mm 2 mps 736 mmHg 72%
    20:00 +18°C° 0 mm 2 mps 736 mmHg 77%
    21:00 +19°C° 0 mm 1 mps 736 mmHg 79%
    22:00 +18°C° 0 mm 1 mps 736 mmHg 81%
    23:00 +16°C° 0 mm 1 mps 736 mmHg 83%

    24 May, Friday

    Time Temperature Precipitation Wind Pressure Humidity
    00:00 +16°C° 0 mm 1 mps 736 mmHg 83%
    01:00 +15°C° 0 mm 1 mps 736 mmHg 84%
    02:00 +15°C° 0 mm 1 mps 736 mmHg 85%
    03:00 +15°C° 0 mm 1 mps 736 mmHg 85%
    04:00 +16°C° 0 mm 1 mps 736 mmHg 84%
    05:00 +16°C° 0 mm 1 mps 736 mmHg 84%
    06:00 +18°C° 0 mm 1 mps 736 mmHg 80%
    07:00 +20°C° 0 mm 1 mps 736 mmHg 75%
    08:00 +20°C° 0 mm 2 mps 736 mmHg 71%
    09:00 +21°C° 0.5 mm 2 mps 736 mmHg 68%
    10:00 +23°C° 0.5 mm 2 mps 736 mmHg 66%
    11:00 +24°C° 0.5 mm 2 mps 736 mmHg 63%
    12:00 +25°C° 0.1 mm 1 mps 736 mmHg 60%
    13:00 +25°C° 0.1 mm 1 mps 735 mmHg 57%
    14:00 +24°C° 0.1 mm 0 mps 735 mmHg 54%
    15:00 +24°C° 0.1 mm 0 mps 735 mmHg 55%
    16:00 +23°C° 0.1 mm 0 mps 735 mmHg 56%
    17:00 +23°C° 0.1 mm 0 mps 735 mmHg 57%
    18:00 +23°C° 0.7 mm 1 mps 734 mmHg 65%
    19:00 +21°C° 0.7 mm 1 mps 734 mmHg 72%
    20:00 +19°C° 0.7 mm 1 mps 734 mmHg 79%
    21:00 +18°C° 0 mm 1 mps 734 mmHg 82%
    22:00 +18°C° 0 mm 1 mps 734 mmHg 85%
    23:00 +16°C° 0 mm 1 mps 734 mmHg 89%

    25 May, Saturday

    Time Temperature Precipitation Wind Pressure Humidity
    00:00 +16°C° 0.2 mm 1 mps 734 mmHg 90%
    01:00 +15°C° 0.2 mm 1 mps 734 mmHg 91%
    02:00 +15°C° 0.2 mm 1 mps 733 mmHg 93%
    03:00 +15°C° 0.2 mm 1 mps 733 mmHg 93%
    04:00 +15°C° 0.2 mm 1 mps 733 mmHg 93%
    05:00 +15°C° 0.2 mm 2 mps 733 mmHg 94%
    06:00 +17°C° 0.4 mm 2 mps 733 mmHg 91%
    07:00 +18°C° 0.4 mm 2 mps 734 mmHg 87%
    08:00 +19°C° 0.4 mm 2 mps 734 mmHg 84%
    09:00 +20°C° 1.4 mm 2 mps 733 mmHg 79%
    10:00 +21°C° 1.4 mm 2 mps 733 mmHg 73%
    11:00 +23°C° 1.4 mm 2 mps 733 mmHg 67%
    12:00 +23°C° 1.5 mm 2 mps 733 mmHg 69%
    13:00 +23°C° 1.5 mm 2 mps 733 mmHg 71%
    14:00 +23°C° 1.5 mm 2 mps 733 mmHg 73%
    15:00 +21°C° 0.9 mm 2 mps 733 mmHg 75%
    16:00 +21°C° 0.9 mm 3 mps 733 mmHg 78%
    17:00 +21°C° 0.9 mm 3 mps 733 mmHg 80%
    18:00 +20°C° 0.4 mm 3 mps 732 mmHg 83%
    19:00 +18°C° 0.4 mm 3 mps 732 mmHg 86%
    20:00 +17°C° 0.4 mm 3 mps 732 mmHg 88%
    21:00 +17°C° 0 mm 3 mps 732 mmHg 90%
    22:00 +16°C° 0 mm 3 mps 732 mmHg 92%
    23:00 +15°C° 0 mm 2 mps 732 mmHg 94%
    Show more